STARLINK-5732, 55572

Orbit data source: Space-Track

STARLINK-5732, 55572 is a payload satellite owned by SpaceX/Seattle (US) in LEO that was launched on Sun, 12 Feb 2023 UTC via an FALCON 9 launch vehicle from the Air Force Eastern Test Range (AFETR). Payload-class satellites include a variety of spacecraft equipped with specific instruments for various scientific and technological missions. These include communications satellites like Starlink; space stations such as the ISS; scientific satellites like the Hubble; Earth observation satellites from companies like Planet Labs, Umbra, and HawkEye 360; GPS; miniature CubeSats for education and research; and military/defense satellites.

Loading next visibility...
Identifier
55572, 2023-020D
Orbit
LEO
Country
Flag of USUS
Related business
Manufacturer
SpaceX/Seattle
Mission
Operational Commercial Communications
Bus & Motor
STARLINK, Unknown motor
Mass
305 kg wet, ~290 kg dry
Launch date (UTC)
2023-02-12 (3 years ago)
Launch vehicle
FALCON 9
Launch site
Air Force Eastern Test Range (AFETR)
Object type
Payload
Rocket body
Debris
Shape & HBR
Box + 1 Pan, 10.1 m
Radar Cross Section
13.562 m², Large (>1 m²)

Expand to show TLE details & history
Last TLE update: 1 day ago

TLE from 1 day ago
0 STARLINK-5732
1 55572U 23020D   26062.02467597  .00000068  00000-0  20084-4 0  9999
2 55572  43.0035  41.1190 0001104 262.8436  97.2281 15.02535697167910
Epoch: 2026-03-03T00:35Z
TLE epoch observation values (Epoch: 2026-03-03T00:35:32.003Z)
Latitude
-0.00002°
Longitude
-128.57404°
Altitude
558.955 km
Speed
7.584 km/s
True Right ascension
02h 44m 28s
True Declination
0° 00' 00"
Sunlit
Object was in daylight at epoch
Visualization orbit readout
Latitude
Unknown
Longitude
Unknown
Altitude
Unknown
Speed
Unknown
Apparent Right ascension
Unknown
Apparent Declination
Unknown
Sunlit
N/A
Visualization observer readout
Local Sidereal Time
06:15:31
Azimuth
Unknown
Elevation
Unknown
Doppler factor
Unknown
Orbital elements
Apogee altitude
561.77 km
Perigee altitude
560.238 km
Semi-major axis
6,939.141 km
Eccentricity
0.00011
Inclination
43.0035°
RAAN
41.119°
Arg. of periapsis
262.8436°
True anomaly
97.24065°
Mean anomaly
97.2281°
Eccentric anomaly
97.23438°
Mean motion
3.75478 °/min
Orbital period
95.88 mins
BSTAR
0.000020084
Loading maneuver chart data...
Computing Atmospheric mass density...

Documentation

Showing up to 5 results
|